Theta_e
314 313 313 313 314 315 316 317 317 317 317 318 318 317 316 316 316 318 318 317 318 317 316 317 316 317 317 317 319 319 320 319 323 332 333 333 334 333 334 335 335 335 335 338 338 335 338 341 340 341 340 339 340 341 339 339 339 339 339 339 339 338 336 337 336 334 334 334 333 333 333 334 333 332 331 331 332 331 331 331 330 330 331 330 328 329
314 313 313 314 315 315 317 318 318 318 318 318 317 316 317 316 316 319 319 318 318 317 316 318 316 316 317 317 318 318 319 319 320 331 334 332 331 331 333 332 332 334 334 335 336 335 338 340 340 340 340 339 339 340 339 338 339 339 339 339 339 338 337 336 335 335 335 334 333 333 333 333 332 332 332 331 331 331 331 330 328 329 330 329 327 329
314 314 314 315 316 316 317 317 318 318 318 318 318 317 316 316 316 317 318 319 318 317 316 317 316 316 318 317 318 318 319 320 319 327 332 332 331 331 332 332 331 332 332 333 335 336 338 339 339 339 340 339 339 339 338 337 337 338 339 339 338 338 337 336 335 335 335 335 334 333 333 333 332 332 332 331 330 330 330 330 328 327 327 327 325 329
314 314 314 315 315 316 317 316 318 319 318 319 319 317 316 316 315 314 317 319 318 318 318 317 316 316 318 318 318 318 318 319 318 321 328 331 331 332 332 331 329 329 330 333 334 337 339 339 339 339 339 339 338 339 338 337 337 339 339 338 337 336 336 336 336 336 336 335 334 333 333 333 332 332 331 330 329 329 329 329 328 325 325 326 326 330
316 316 316 316 315 316 316 316 318 320 319 320 320 318 316 316 315 314 317 318 318 319 318 318 316 315 317 317 317 319 319 318 319 319 321 325 326 328 332 331 328 328 330 334 336 338 340 339 338 339 339 339 339 339 338 337 338 339 338 337 336 335 335 336 336 336 335 334 333 333 333 332 332 331 331 329 328 329 329 328 327 325 325 328 330 332
317 318 318 316 315 315 316 316 318 319 319 319 319 318 316 316 317 317 318 317 315 315 317 317 314 314 316 317 317 318 319 318 319 319 319 320 320 323 331 331 329 330 333 337 338 339 339 338 339 339 339 340 341 340 338 338 339 338 337 336 336 336 336 337 336 335 334 333 332 333 332 331 331 331 330 329 328 328 327 326 327 327 328 331 332 331
317 318 318 317 316 315 316 317 318 319 318 316 317 318 317 317 317 317 317 316 313 313 317 318 314 313 315 316 318 317 318 318 318 319 319 320 320 319 329 332 332 333 336 340 340 339 338 338 339 339 338 338 338 338 338 338 338 337 336 336 337 337 336 335 334 332 331 331 331 331 331 331 331 330 329 328 328 327 325 325 328 328 329 331 331 330
318 317 317 316 316 317 316 317 317 318 316 315 317 318 317 317 316 316 316 315 314 315 316 317 314 312 312 315 318 319 318 318 318 319 318 319 320 318 325 332 333 334 337 340 340 340 338 338 340 339 337 335 335 336 336 336 337 336 334 335 337 336 336 335 333 331 330 331 331 330 330 331 330 329 328 328 327 326 324 327 330 328 328 330 330 329
318 317 317 317 316 317 317 317 317 317 316 315 317 317 317 317 317 317 316 315 316 315 313 314 314 313 312 315 319 319 318 318 318 319 319 320 320 318 319 328 332 334 336 339 339 338 337 339 340 339 338 337 336 337 337 335 335 332 329 333 335 335 333 331 331 332 331 331 331 328 329 330 330 328 327 327 325 324 325 328 329 327 328 330 330 329
318 317 317 317 317 317 317 317 316 315 316 316 317 317 316 317 316 317 316 314 314 314 312 313 314 312 311 315 317 318 318 319 320 318 322 326 324 325 322 324 332 334 334 337 335 334 337 340 340 339 340 339 336 335 335 336 335 331 331 333 333 331 329 329 330 331 331 331 330 329 329 330 329 327 327 327 326 325 326 328 328 328 329 330 330 330
318 318 318 317 318 318 317 316 316 316 316 316 316 316 316 316 316 317 316 314 313 313 313 313 314 313 312 313 316 319 322 325 326 324 327 330 328 329 327 324 330 332 333 336 334 334 338 338 338 338 338 336 334 331 330 333 335 333 331 331 330 326 325 327 328 330 330 330 330 330 329 328 327 327 327 327 325 324 327 328 328 329 330 330 330 328
317 317 318 318 318 318 317 316 317 317 317 317 316 315 315 315 315 315 314 314 313 313 313 313 314 313 311 313 319 323 324 326 327 326 328 329 329 330 329 326 329 331 333 335 334 337 336 335 334 335 334 332 332 330 326 329 333 331 328 327 325 322 320 321 322 327 330 330 331 331 328 327 326 327 327 325 323 325 327 328 327 329 330 330 329 326
315 316 317 318 318 318 317 315 316 317 316 317 315 314 314 313 313 313 312 313 313 313 313 313 314 314 313 318 325 326 325 326 329 328 329 330 331 332 330 328 330 332 333 334 334 335 334 333 332 333 334 333 333 331 329 328 329 330 328 326 323 319 318 319 319 323 328 329 330 331 328 326 327 328 326 324 324 326 327 326 326 328 328 328 328 326
314 316 316 317 317 317 317 315 314 314 315 316 314 314 313 312 313 314 313 313 314 314 314 315 315 312 314 323 328 328 328 329 330 331 331 332 333 333 333 332 333 333 334 335 335 334 333 334 334 334 335 334 334 333 331 329 328 330 329 325 322 321 322 322 317 322 329 329 329 331 328 327 328 326 323 323 325 326 327 325 327 328 326 327 327 327
314 315 315 316 317 317 316 315 315 315 315 316 316 315 314 312 313 313 313 314 315 315 316 317 316 313 316 325 328 327 327 329 331 332 333 333 334 333 332 331 331 331 331 331 332 331 332 334 334 333 331 331 334 334 331 329 328 329 328 324 323 325 329 332 328 328 331 329 329 330 329 327 327 324 322 325 325 325 326 325 328 328 326 327 326 327
314 314 316 316 317 317 316 315 317 316 315 316 317 315 314 313 313 313 314 315 315 316 316 316 316 319 323 325 326 326 326 327 330 332 333 333 334 333 331 330 329 329 329 329 329 329 329 332 334 332 328 329 331 331 331 330 328 328 327 326 326 327 331 334 333 332 331 330 329 330 329 327 326 323 324 326 324 325 326 325 326 327 327 327 326 327
314 315 317 317 317 317 316 316 316 316 315 316 315 313 314 315 315 314 314 315 315 316 316 315 316 323 327 326 325 326 326 326 328 330 331 333 333 332 330 329 327 328 330 329 329 330 329 330 333 333 331 332 331 329 331 330 329 330 328 328 328 328 328 331 333 333 332 330 329 330 328 327 326 323 324 324 320 323 328 327 325 325 328 328 327 327
316 316 317 317 317 317 318 317 316 316 316 315 314 314 316 316 315 315 314 315 316 316 316 315 315 321 325 326 326 327 327 327 328 328 330 332 332 330 329 327 327 327 328 329 329 330 330 330 331 332 332 334 333 330 331 331 330 331 331 331 330 328 329 331 332 333 333 331 330 330 329 327 325 323 324 323 319 321 327 328 326 326 328 327 327 328
316 314 316 317 317 317 318 317 316 316 316 315 316 317 316 315 314 314 313 315 316 317 317 315 314 321 325 325 326 328 328 328 327 327 329 331 331 331 330 329 327 326 326 328 328 328 330 331 331 331 331 332 333 332 332 332 331 332 332 333 331 330 331 331 331 332 333 332 330 329 328 325 323 324 325 324 320 321 325 327 327 327 328 327 327 328
317 315 316 317 317 317 317 316 314 315 316 315 316 317 317 316 314 314 314 315 315 316 317 315 316 324 327 326 327 328 327 327 327 327 328 330 331 331 330 330 328 327 327 327 327 327 329 330 330 329 329 329 330 331 333 333 332 332 332 332 332 332 331 331 331 331 332 333 331 329 327 324 323 325 326 324 322 321 324 326 327 328 328 327 327 327
317 317 316 317 316 316 315 316 315 315 315 314 314 314 315 316 316 316 316 315 314 315 317 316 319 326 327 326 327 327 326 326 326 328 329 329 330 330 329 329 329 329 328 327 328 328 328 329 329 329 329 329 329 331 333 333 333 333 332 332 332 332 332 331 331 330 331 333 331 329 326 322 323 326 325 323 320 317 321 325 327 328 327 327 327 324
316 317 317 316 316 315 315 316 316 316 316 315 314 313 314 315 315 316 317 317 317 317 317 317 321 326 327 325 327 326 326 326 327 328 328 328 328 328 328 328 327 328 328 328 328 329 328 329 329 329 330 330 330 331 332 333 333 333 332 332 332 332 332 331 330 331 332 332 331 328 325 322 324 325 322 320 318 316 321 325 326 328 327 327 327 322
317 317 316 316 316 316 317 317 316 317 316 316 316 315 315 315 314 314 317 320 319 317 317 317 320 325 326 326 326 325 325 326 327 328 327 326 326 326 326 326 326 327 327 327 328 328 328 328 329 330 330 330 330 330 332 332 332 333 333 332 332 332 332 331 331 331 331 331 330 328 324 323 326 325 321 319 319 319 323 324 325 327 326 327 326 320
317 317 316 316 316 316 317 317 317 316 315 316 316 316 316 316 315 315 317 319 318 316 317 318 320 325 326 325 325 325 325 325 325 325 325 325 324 324 324 324 325 325 325 325 326 325 326 326 326 327 328 329 329 330 331 331 331 332 332 332 332 332 332 331 331 331 330 330 330 327 326 326 326 326 322 320 322 322 322 323 323 324 325 326 325 321
317 316 316 317 317 316 317 318 318 317 316 316 316 318 317 316 319 320 319 319 318 317 318 319 322 325 325 325 325 325 325 324 323 323 323 322 322 322 322 323 323 323 322 322 322 322 322 323 323 324 325 326 327 328 329 329 329 331 331 331 331 331 331 331 331 330 329 331 331 328 327 327 326 326 324 322 324 323 322 322 322 323 325 327 326 324
320 319 317 318 318 318 318 319 319 319 319 318 318 320 320 320 322 322 320 319 319 319 320 321 323 325 326 325 325 324 322 322 321 321 321 320 320 320 321 321 321 321 321 320 320 319 319 319 320 321 322 323 323 324 325 326 327 329 329 330 330 330 331 331 330 330 329 330 330 327 326 326 325 326 325 324 324 324 322 322 321 322 326 327 326 324
321 322 320 319 320 321 320 320 320 320 320 321 322 322 323 324 324 323 321 322 323 323 324 323 324 326 326 324 323 321 320 319 319 319 319 319 318 318 319 320 320 320 319 319 318 317 317 317 318 319 320 321 322 322 323 323 324 326 328 328 329 330 330 330 330 330 329 330 329 327 326 325 324 325 325 324 323 323 323 323 322 324 325 326 326 323
321 321 320 320 322 322 320 319 320 320 321 323 324 324 324 324 325 325 324 324 324 323 324 325 326 327 325 322 320 319 318 317 317 317 316 316 316 316 317 318 318 318 317 317 317 316 315 315 316 319 320 321 322 322 322 323 323 325 326 327 328 330 330 330 329 329 329 330 329 328 326 325 325 326 326 324 323 323 323 323 324 325 324 324 323 321
321 321 321 322 322 321 320 320 320 321 321 322 322 323 323 322 323 325 325 325 324 324 324 326 327 326 322 319 317 317 316 315 315 315 314 314 313 313 314 315 315 315 315 315 314 314 313 313 314 317 319 321 322 323 323 323 323 323 325 325 327 329 329 329 329 329 329 330 329 327 325 326 327 327 326 326 324 323 323 324 325 325 323 322 321 319
322 321 321 322 322 321 321 320 321 321 321 320 320 320 321 321 322 323 324 324 324 325 325 325 323 320 318 316 315 315 315 314 313 312 312 311 311 311 311 312 312 312 312 312 312 311 312 313 313 316 319 321 322 322 322 322 322 323 324 324 325 327 328 328 329 329 329 329 328 326 325 327 327 326 326 326 324 323 324 324 324 324 323 322 320 319
320 320 321 321 320 321 321 320 320 321 320 318 317 317 319 320 321 322 322 322 324 325 325 324 321 318 315 314 314 313 312 312 311 310 310 309 309 309 309 309 309 309 309 310 310 310 310 312 314 315 317 319 320 321 321 320 321 323 323 323 324 326 327 326 328 329 329 329 328 327 326 326 325 323 323 323 324 325 325 324 324 324 323 321 319 319
319 320 320 320 320 320 320 320 320 320 319 317 315 315 317 319 320 320 319 319 321 323 324 324 322 318 314 313 312 310 309 309 308 308 308 308 307 307 307 307 307 307 307 307 308 308 308 310 311 312 314 316 318 319 319 319 320 322 323 324 324 325 326 326 328 329 329 328 328 327 326 325 323 322 323 323 325 326 325 325 324 324 322 321 320 320
319 320 319 320 320 319 320 321 321 320 321 319 314 313 315 317 318 318 317 317 317 319 320 321 318 315 312 311 310 308 307 307 306 306 306 306 306 306 305 305 305 305 305 305 306 306 307 308 309 310 312 313 315 316 317 318 320 321 322 323 324 325 326 327 328 328 328 327 327 327 328 327 325 324 325 325 324 325 325 325 324 323 322 321 321 321
319 318 319 319 318 318 321 321 320 321 321 317 312 312 313 315 316 316 315 314 314 316 316 315 312 310 308 307 306 305 305 305 305 305 305 305 305 305 304 304 304 304 304 304 305 306 306 307 309 310 311 312 313 313 315 317 318 319 321 322 323 324 324 326 327 327 327 326 326 326 326 327 327 326 325 325 324 324 324 324 323 322 322 321 321 320
319 317 318 318 316 317 320 320 320 320 317 313 311 311 312 313 314 314 312 311 312 314 313 312 309 308 306 306 305 304 304 304 304 304 304 304 304 304 303 303 303 303 303 303 304 305 306 306 308 310 311 312 314 314 314 314 316 318 319 321 322 322 323 324 325 325 326 326 325 325 325 326 326 326 325 324 324 324 324 324 323 322 322 320 318 317
319 317 317 318 317 317 319 320 320 318 314 312 312 311 311 312 312 313 313 311 310 311 312 310 309 307 307 306 305 305 304 304 303 303 303 303 303 303 303 303 302 302 302 302 303 304 305 305 306 308 310 312 314 315 313 313 315 316 317 319 320 321 321 321 322 322 323 323 324 324 324 325 325 324 323 323 323 323 323 323 321 320 319 318 316 314
319 318 317 318 318 318 317 317 316 315 313 312 311 310 310 311 310 311 313 311 309 310 311 310 308 308 307 307 306 306 305 305 303 302 302 302 302 302 302 302 301 301 301 301 302 302 304 304 304 306 309 311 313 313 312 312 314 315 316 318 319 320 320 320 320 320 320 320 321 321 322 323 323 322 321 322 322 322 321 320 318 317 318 317 315 314
318 318 317 317 317 316 316 315 315 316 315 312 311 310 310 311 310 309 311 311 309 309 310 309 308 308 308 308 307 307 308 307 304 302 302 302 301 301 301 301 301 301 301 301 301 302 303 304 304 305 308 310 311 310 310 310 312 314 315 316 317 318 319 319 319 319 319 319 319 319 319 319 319 319 319 320 320 320 319 318 317 317 317 317 317 316
316 317 316 316 316 316 316 316 316 316 313 310 309 310 310 311 310 310 312 313 309 308 309 309 308 308 308 309 308 308 310 309 304 301 302 301 299 299 300 300 301 302 301 301 301 301 301 303 304 306 308 309 309 308 308 309 311 313 313 313 314 315 316 316 316 317 318 318 318 318 318 318 318 318 318 319 319 319 318 318 316 316 317 317 316 316
316 315 315 315 316 315 316 315 313 312 310 308 309 310 311 311 310 312 316 313 308 308 309 308 308 308 308 308 308 307 308 307 303 302 302 300 299 299 299 299 300 301 301 302 302 301 300 301 303 305 307 307 307 307 307 308 309 309 308 309 311 312 312 312 313 315 316 317 317 317 317 317 317 317 317 317 317 317 317 316 316 316 316 316 316 316
314 314 314 315 315 314 314 313 311 310 308 308 309 310 309 310 312 314 314 310 307 308 309 308 308 308 307 306 305 304 304 304 303 302 302 301 301 300 299 299 300 300 301 301 302 302 302 300 300 300 301 302 303 304 304 305 306 305 305 306 307 307 307 307 309 312 314 315 316 317 317 317 317 317 317 317 317 317 317 317 316 316 317 317 317 317
314 314 314 314 314 314 313 312 312 310 308 307 309 310 308 310 313 311 308 307 308 309 308 308 308 307 306 304 303 302 302 302 302 302 301 301 301 300 300 300 300 300 301 301 302 303 303 302 301 300 299 298 299 299 299 300 301 300 301 302 302 302 304 305 307 308 308 309 311 314 316 316 316 317 317 316 316 316 316 316 316 316 316 316 316 316
312 314 313 312 313 314 313 312 312 311 308 307 309 309 308 309 309 307 306 307 308 308 307 307 306 305 304 303 302 302 301 301 301 301 300 300 299 299 299 299 299 300 300 300 301 302 302 303 303 303 302 301 300 300 299 299 299 298 298 299 298 299 300 302 304 304 304 304 305 308 310 311 313 314 314 314 314 314 314 313 313 313 312 312 311 311
311 313 313 310 310 312 312 310 310 309 307 307 308 307 306 306 306 305 306 307 307 307 306 305 304 304 304 303 302 301 301 300 300 299 299 299 298 298 298 298 298 298 298 298 298 299 301 302 302 302 302 302 302 301 301 300 299 298 297 297 297 297 298 299 300 301 301 301 301 302 303 304 306 307 308 308 307 308 308 308 307 306 307 308 307 307
309 310 310 309 308 309 308 307 307 307 307 307 307 306 305 305 305 305 305 305 306 306 305 304 304 304 303 302 302 301 301 300 300 299 299 298 298 298 298 298 297 297 298 298 297 297 298 299 300 301 301 301 301 301 301 300 299 298 297 297 296 296 297 297 297 298 299 300 300 300 300 300 300 300 301 301 301 302 303 304 303 303 304 306 306 306
309 309 308 308 307 307 308 307 307 307 307 306 306 305 305 304 304 304 304 304 304 304 304 304 303 303 303 302 301 300 300 300 300 300 299 299 299 299 298 298 298 298 298 298 298 298 297 297 297 298 298 298 299 299 299 299 299 299 299 299 299 298 297 297 297 297 298 299 300 301 301 300 299 300 300 301 301 302 303 303 304 304 304 305 305 305
309 309 309 308 307 308 308 308 307 307 307 306 306 305 304 304 303 303 303 303 303 303 303 303 302 302 301 301 300 300 300 300 300 300 300 299 299 298 298 299 298 298 299 299 298 298 298 297 297 297 297 296 297 297 298 299 298 298 299 299 300 300 299 298 298 298 299 299 299 299 299 298 298 299 300 300 300 301 301 301 301 302 303 303 303 303
308 308 308 307 307 307 307 307 306 306 306 306 305 305 304 304 303 303 303 302 303 302 302 301 301 301 301 301 301 301 301 300 300 300 300 300 300 299 299 299 299 299 299 299 298 298 297 297 297 298 298 298 298 298 299 300 299 299 299 299 299 298 298 298 298 298 299 300 300 300 299 298 297 297 297 297 297 298 298 298 298 298 299 300 300 301
307 307 307 307 306 306 306 306 306 306 305 305 305 305 304 304 303 303 303 303 303 302 302 302 302 302 302 302 301 301 301 301 301 301 301 301 300 300 299 300 299 299 299 299 299 299 298 298 298 298 299 299 299 299 300 300 300 300 300 299 299 299 299 300 299 298 298 300 301 301 301 301 300 299 298 298 297 296 297 297 297 297 297 297 297 298
307 307 307 307 307 306 306 306 305 305 305 305 305 305 305 304 304 304 303 303 303 302 302 302 302 302 301 301 301 301 301 301 301 301 301 301 301 300 300 300 300 300 300 300 299 299 299 299 299 299 299 299 299 299 299 299 299 300 300 300 300 300 301 301 300 299 298 299 301 302 302 302 302 302 302 301 299 299 298 297 297 297 297 297 297 297
307 307 307 307 307 307 306 306 305 305 304 304 304 304 304 304 304 304 303 303 303 303 302 302 302 301 301 301 300 301 301 301 301 301 301 301 301 301 300 301 300 300 300 300 300 300 300 299 299 299 299 299 299 299 299 299 299 299 299 299 299 300 300 300 300 300 299 299 300 301 301 301 302 302 302 302 302 301 301 300 299 298 298 298 298 298
Wind_Speed
11 7 8 9 10 12 13 14 14 15 16 14 10 6 8 9 9 10 7 12 7 3 5 8 9 11 12 13 12 8 10 13 12 16 16 14 13 12 11 8 6 6 7 9 12 15 16 16 16 17 18 17 18 20 19 21 23 23 24 24 23 23 23 23 21 22 22 20 19 16 13 12 11 10 11 12 11 11 11 12 11 9 10 13 14 13
11 7 9 12 13 15 14 14 14 16 16 12 11 7 8 9 7 8 7 9 11 5 4 8 10 11 12 12 13 14 12 11 12 17 18 15 13 12 11 9 7 5 7 12 17 19 16 16 17 18 19 19 20 22 22 23 23 23 25 24 22 22 23 23 20 20 20 18 16 15 12 12 10 9 10 12 12 12 12 12 12 11 11 11 12 13
9 8 12 14 14 14 14 14 14 16 15 8 7 7 7 7 6 8 9 4 7 5 3 7 10 10 12 13 12 14 14 13 12 17 24 23 19 16 17 18 17 13 13 15 20 22 17 15 17 18 20 22 21 22 21 23 24 23 23 22 21 20 19 18 16 17 18 16 14 14 11 10 10 10 10 10 12 13 12 12 12 11 10 11 11 12
7 10 15 16 14 13 14 14 11 11 10 5 6 7 7 8 8 7 7 5 3 3 2 5 10 9 11 11 11 14 15 18 21 13 22 26 25 23 24 27 26 24 23 23 24 25 19 16 18 20 23 24 23 22 20 22 23 22 19 18 18 17 14 13 14 15 15 14 14 13 11 11 12 11 9 10 13 14 13 13 12 9 9 10 10 9
9 14 19 17 14 14 15 13 8 6 5 7 10 10 8 10 11 9 7 5 4 4 2 5 9 8 10 12 10 12 12 16 23 19 14 20 23 23 29 33 30 29 30 30 28 26 23 21 21 23 24 23 23 22 21 21 21 18 16 14 13 13 12 12 14 14 12 13 14 13 13 13 13 11 10 12 14 15 14 12 11 9 9 9 6 5
12 16 15 14 14 15 13 10 9 8 6 8 11 13 13 13 13 13 11 8 6 5 5 8 8 6 9 13 12 11 11 13 18 19 15 17 21 18 27 35 33 32 33 31 29 26 26 26 24 24 24 22 21 20 19 19 19 15 13 11 10 12 12 11 12 13 11 11 12 13 14 15 14 13 13 14 15 15 14 12 11 11 9 8 7 7
9 15 10 8 9 10 10 8 10 11 8 7 9 12 15 15 14 14 13 11 7 5 5 8 8 6 7 11 12 13 14 15 15 15 14 15 18 17 23 37 36 34 31 27 26 25 25 28 26 23 19 15 13 15 16 14 14 14 13 11 11 12 13 11 10 10 9 10 11 12 14 14 14 13 14 15 14 13 13 12 12 11 9 7 7 8
9 15 13 10 9 6 8 9 10 12 9 7 9 11 14 15 16 16 12 9 8 7 8 11 10 8 6 7 10 12 12 14 14 13 14 15 17 19 17 32 35 31 30 29 27 26 27 26 20 13 11 6 1 5 11 8 7 10 9 10 12 11 12 10 8 10 10 10 11 13 14 14 13 12 14 15 15 14 13 12 12 10 9 8 8 9
9 15 14 11 9 7 8 10 11 12 10 8 11 14 14 12 12 13 10 8 8 8 8 11 11 8 6 6 9 13 12 11 11 10 11 12 14 18 19 23 34 30 30 31 27 26 25 19 15 13 14 12 2 1 5 6 6 5 6 11 11 7 7 5 7 11 12 11 13 14 15 15 14 13 14 15 15 14 13 13 12 10 10 9 8 8
9 11 12 7 8 8 9 11 12 13 11 9 12 14 11 6 6 8 8 8 8 9 9 10 11 8 6 6 7 9 9 7 7 8 5 5 4 7 15 11 31 32 28 29 26 23 20 16 16 18 17 14 10 6 6 9 9 10 10 11 10 7 5 3 9 12 13 13 15 17 16 16 17 17 16 17 16 15 14 14 14 12 10 11 11 10
8 10 11 9 10 10 11 11 12 12 9 8 10 10 7 3 5 7 7 7 7 8 10 12 13 10 7 6 6 4 1 6 3 3 6 11 14 14 19 12 18 28 19 19 18 12 13 14 13 14 12 9 11 12 13 15 16 15 14 14 15 10 4 2 8 12 15 17 17 19 19 18 20 20 19 19 18 17 15 15 16 15 12 12 12 12
13 10 9 8 7 8 10 10 10 10 7 7 7 5 4 4 7 7 7 7 7 7 9 12 14 13 8 5 3 2 5 9 7 6 8 9 12 13 17 17 9 21 14 15 15 12 14 14 15 13 11 11 10 15 16 19 22 22 22 24 25 18 7 2 8 14 19 21 21 21 22 21 21 21 21 20 19 18 15 15 16 16 15 12 11 13
12 10 11 9 8 10 11 8 9 9 8 8 7 5 5 6 6 7 6 6 7 8 9 12 12 10 6 2 7 7 8 10 8 8 10 9 12 13 14 17 8 13 11 11 12 14 15 17 21 18 14 13 12 16 17 21 25 26 29 31 29 24 16 7 7 19 23 26 26 25 25 24 22 21 21 20 19 18 15 15 16 16 15 13 10 11
8 11 14 12 9 13 14 8 8 9 9 9 8 7 7 6 5 6 6 6 7 7 9 12 10 7 4 3 10 11 10 11 11 12 14 13 13 14 16 21 18 11 7 8 11 13 14 14 16 15 12 12 13 15 18 23 27 29 34 35 30 30 25 14 13 24 28 29 28 28 28 26 24 23 22 22 20 19 16 15 16 15 14 14 11 10
8 9 11 10 8 12 15 13 10 8 8 9 8 8 8 7 6 5 5 6 6 4 6 9 7 5 4 1 7 9 11 12 13 13 13 14 15 15 18 21 19 15 13 12 12 11 12 10 10 9 6 9 13 18 23 26 30 33 38 37 31 33 32 24 23 29 30 31 30 30 29 27 26 25 25 23 20 19 17 16 16 14 13 13 12 11
10 9 8 11 11 12 14 14 14 11 8 8 9 9 8 7 6 4 5 5 3 3 4 6 3 2 3 4 6 8 9 10 11 12 13 13 15 15 17 18 15 14 13 9 9 7 4 7 8 6 5 10 16 23 28 29 33 37 38 36 30 29 30 28 29 30 30 31 32 31 30 29 28 26 27 25 21 20 17 16 16 15 14 13 12 11
8 8 8 12 13 14 13 13 14 13 7 5 8 9 8 9 8 5 5 5 3 4 4 5 3 4 6 5 7 8 7 8 9 10 13 14 16 16 17 17 14 12 12 9 6 3 3 5 10 10 9 14 18 23 29 32 35 36 33 31 28 27 28 28 29 30 30 32 32 32 32 31 29 28 27 24 23 21 18 16 16 16 15 12 11 11
6 6 8 11 12 14 16 15 14 14 11 5 5 8 8 9 9 5 4 5 5 6 5 6 7 4 4 2 6 7 6 8 9 9 11 13 15 16 15 15 14 11 11 10 6 1 5 6 9 10 12 15 14 15 23 29 31 26 21 23 24 24 25 25 27 30 33 33 33 33 33 32 30 28 26 24 24 22 20 18 17 16 15 12 12 12
5 5 7 12 12 12 14 14 11 13 15 11 6 7 6 6 6 6 5 5 6 6 5 7 9 1 3 1 5 5 5 8 9 9 10 12 14 14 14 14 13 11 12 13 11 7 5 6 8 8 11 13 11 9 13 20 24 21 16 17 18 20 20 20 23 27 31 33 34 34 34 32 31 29 26 24 23 22 22 20 17 16 15 13 14 13
4 4 6 10 11 10 10 9 8 9 13 13 10 8 6 4 4 4 3 4 5 6 5 6 6 1 4 4 4 6 4 6 6 4 5 9 13 14 15 14 13 13 14 14 12 8 5 4 6 8 11 10 10 12 12 14 16 18 18 17 16 15 16 18 20 23 28 31 32 33 34 32 31 30 27 25 23 22 22 20 17 17 16 16 15 13
6 4 5 6 8 10 7 7 9 9 9 10 9 8 7 5 4 3 2 2 4 4 4 5 3 2 1 3 4 7 5 4 4 4 4 7 12 14 14 14 14 15 14 15 13 6 1 2 2 3 4 5 8 12 14 14 13 13 15 16 16 15 14 16 18 20 26 27 28 31 33 32 32 30 28 25 23 22 22 20 19 17 16 17 15 13
6 5 5 6 6 8 9 10 12 12 10 9 8 9 8 7 5 5 3 1 2 4 4 3 1 2 1 3 4 7 6 5 4 5 6 9 12 13 13 12 13 15 16 16 16 12 8 5 4 3 3 2 4 8 12 13 13 13 12 12 14 15 14 14 16 19 24 24 25 30 32 33 32 30 28 25 23 23 22 21 20 17 15 15 13 13
3 3 5 7 6 9 10 9 11 14 14 11 10 10 9 8 7 7 4 1 2 5 3 1 2 2 2 6 7 7 9 9 9 9 9 11 13 15 15 15 15 16 17 17 17 16 15 12 9 8 6 4 2 2 5 7 9 12 13 11 11 13 14 13 15 19 23 23 27 32 33 33 31 29 28 25 24 24 22 21 22 19 16 14 13 13
3 2 6 6 6 9 10 6 8 14 14 11 9 9 9 9 8 6 3 2 2 5 3 0 1 0 3 5 4 6 11 13 13 12 11 12 14 15 16 15 15 15 16 18 18 16 15 13 13 14 12 10 8 6 4 1 4 8 11 11 11 12 12 14 17 19 22 25 29 31 32 32 31 29 28 26 24 25 23 21 22 20 16 15 13 14
1 4 6 6 6 8 7 5 7 10 8 7 7 8 11 8 3 3 2 4 2 5 2 0 1 1 2 4 5 7 11 13 12 12 12 13 13 14 13 12 13 14 15 17 18 16 14 13 14 14 14 14 13 9 8 9 7 6 8 7 10 13 11 13 18 20 23 28 30 30 31 32 31 29 28 27 25 24 24 21 20 18 16 15 14 14
3 2 3 6 6 5 4 3 3 2 4 5 5 6 8 5 4 3 1 2 1 2 2 2 2 4 4 7 9 9 10 10 10 12 13 13 13 12 11 11 12 13 15 16 17 16 15 14 14 13 13 14 14 13 13 14 13 6 7 6 8 12 12 12 16 20 25 29 27 28 31 32 32 29 27 27 26 24 23 21 18 17 17 15 14 15
3 3 3 5 2 1 3 4 0 1 4 6 8 11 12 13 11 4 3 2 2 3 4 2 6 7 6 9 9 9 10 9 9 11 12 12 12 11 11 11 12 13 14 15 16 17 18 17 17 16 14 13 13 13 13 14 15 8 5 5 6 9 12 11 13 20 27 28 26 29 33 32 31 29 26 26 25 23 22 19 17 17 17 16 15 16
3 3 4 5 4 1 2 6 3 3 4 7 10 12 14 17 15 9 6 4 3 2 2 2 8 9 7 7 8 7 8 7 8 11 12 11 11 11 11 12 13 14 16 17 18 19 19 20 19 18 16 15 13 12 12 11 12 9 4 3 2 6 8 6 12 23 27 26 27 31 32 31 30 29 26 24 24 23 21 19 17 15 16 16 15 15
2 2 3 4 6 3 4 8 6 5 7 9 13 14 14 15 13 10 9 9 5 1 3 6 9 9 8 7 7 7 7 8 9 11 11 11 12 12 13 14 15 16 18 20 20 20 20 20 20 19 17 15 13 12 12 10 9 9 7 6 3 4 5 6 18 27 26 26 29 32 32 30 28 29 26 23 22 21 19 19 18 15 14 15 14 13
3 1 2 3 5 4 5 7 8 4 9 10 15 16 13 9 7 8 11 10 6 3 5 10 11 10 7 6 7 8 9 10 11 12 12 14 14 14 14 16 17 18 19 20 20 20 21 20 20 19 17 15 14 13 12 11 9 9 8 7 4 2 6 13 22 24 21 25 29 30 31 31 28 28 26 23 21 20 19 20 20 18 16 16 15 14
0 1 2 2 3 3 1 3 5 3 10 13 16 16 13 10 7 9 11 8 4 3 7 10 9 7 5 7 10 11 11 12 13 14 14 15 15 15 16 17 18 18 19 20 19 19 20 20 19 19 18 16 15 14 12 11 9 7 7 7 4 6 11 16 20 19 19 24 28 28 29 29 29 28 25 23 22 21 21 20 19 18 17 16 15 15
2 2 2 0 3 2 2 3 1 3 7 13 17 15 13 11 8 8 8 8 7 6 1 4 5 4 4 7 11 12 13 14 15 15 14 15 16 17 17 17 18 18 18 18 19 19 20 20 20 22 21 19 17 15 13 12 11 9 8 8 5 8 14 16 17 17 17 21 25 26 25 24 26 27 25 24 25 24 23 23 22 20 19 18 18 17
1 2 3 2 2 1 1 0 1 1 2 5 9 10 10 9 8 8 9 10 11 9 3 2 4 5 6 8 9 10 12 13 15 15 15 14 15 16 17 17 17 17 17 17 18 19 19 19 19 21 22 21 20 18 15 13 13 12 11 9 7 9 15 17 17 18 18 17 19 23 23 23 25 29 29 30 30 28 28 28 27 26 24 24 23 22
1 1 1 2 2 2 1 3 2 1 2 1 3 6 7 7 8 10 10 11 12 9 7 7 7 8 9 9 9 9 11 13 15 16 16 15 15 15 16 16 16 16 17 17 17 18 18 17 16 18 19 20 19 18 16 14 12 12 11 9 5 7 14 18 19 20 21 19 19 21 23 25 28 30 31 32 33 32 30 29 28 27 26 26 24 21
2 1 1 2 1 2 3 3 0 1 2 2 2 7 6 5 8 12 11 11 12 9 9 10 9 9 9 10 11 12 14 15 17 18 18 17 15 15 15 16 16 16 17 17 17 16 17 17 15 14 16 17 16 15 15 15 13 11 10 10 8 8 13 18 21 22 22 22 22 22 23 24 26 27 28 30 31 30 29 27 25 25 24 21 18 16
2 2 2 1 1 1 1 1 1 3 5 5 5 8 9 5 6 7 8 10 12 10 8 8 8 8 10 11 11 12 14 18 20 20 19 17 15 15 16 15 15 16 16 16 17 17 17 18 17 15 13 12 12 13 14 14 13 12 10 11 12 11 11 13 16 19 20 21 22 22 22 22 23 23 24 26 27 26 25 24 22 22 21 18 15 14
1 1 2 2 1 1 2 3 4 6 5 6 6 6 7 5 4 3 3 6 10 10 8 7 7 7 8 9 9 10 10 12 16 17 18 17 15 14 14 14 15 16 16 16 17 17 17 18 18 16 13 10 10 12 13 13 13 13 12 11 12 12 10 10 11 12 12 13 14 16 19 21 22 20 20 22 22 21 21 20 18 17 15 14 14 14
3 1 1 2 1 2 4 5 3 4 3 6 6 6 6 4 3 2 1 3 8 11 9 6 6 6 6 6 5 4 4 2 7 10 14 15 14 14 14 14 16 17 18 18 18 18 17 17 18 18 15 12 12 12 13 13 14 15 15 15 15 13 12 12 12 10 8 9 9 9 12 15 18 19 19 20 20 20 20 19 16 13 11 10 11 12
7 4 2 2 3 2 3 4 2 2 3 5 8 8 7 5 2 1 2 3 6 10 8 6 5 6 6 6 6 3 2 1 3 5 10 12 13 14 15 15 15 16 17 18 18 19 18 16 16 18 18 18 16 14 14 15 17 19 19 19 18 17 16 16 15 14 12 11 11 10 10 11 13 14 14 15 15 15 15 14 14 13 10 7 7 9
6 4 2 3 4 3 3 4 4 3 3 7 9 8 7 5 1 3 1 4 6 11 7 5 5 6 8 9 9 7 5 4 6 6 8 11 14 16 16 16 16 16 16 17 17 17 17 15 15 17 19 21 19 16 15 16 18 22 23 22 21 20 19 18 16 15 15 14 13 13 13 13 12 13 12 12 12 12 11 10 9 8 6 6 6 6
6 4 3 4 5 5 5 5 4 3 3 9 10 7 9 6 2 0 1 1 8 9 4 7 8 10 11 11 11 10 10 12 13 11 10 11 13 15 15 15 16 15 16 16 16 15 15 16 17 19 20 20 18 16 16 16 17 20 22 23 23 21 19 17 16 15 14 14 14 14 15 15 16 16 15 14 13 12 12 10 9 8 7 7 7 6
4 3 3 3 3 3 4 5 4 4 5 14 12 8 11 6 1 3 4 5 6 6 9 11 11 13 14 14 16 16 15 16 14 12 11 12 12 13 13 13 14 14 15 15 15 15 14 15 16 18 19 19 18 17 17 16 17 18 19 21 23 20 16 15 15 15 15 15 15 15 15 15 15 16 15 15 14 13 12 11 10 9 8 7 7 7
3 1 3 4 3 2 4 5 3 2 8 17 12 6 9 7 2 2 5 6 10 13 13 14 14 14 16 17 18 18 17 15 14 14 14 15 15 15 15 15 15 16 16 16 16 15 13 13 14 15 15 15 15 15 16 17 18 18 18 19 19 16 13 13 13 14 15 15 14 14 14 13 13 13 13 13 12 12 11 11 10 10 10 9 6 5
6 3 2 2 3 2 3 4 3 2 7 14 11 6 7 7 6 5 6 9 12 12 12 15 15 14 17 19 18 17 17 16 15 16 17 18 18 17 17 17 17 18 18 18 18 17 15 14 14 13 13 13 12 12 14 16 17 19 20 20 17 14 13 12 11 11 12 14 14 13 11 11 11 11 11 11 10 10 10 10 9 9 10 10 8 7
7 8 9 7 5 6 6 6 6 8 10 13 13 11 11 10 10 9 10 12 12 12 13 15 15 15 17 18 18 18 18 16 15 16 17 17 17 17 16 16 17 17 17 17 18 19 19 18 16 15 14 14 13 13 13 14 15 18 20 20 18 17 16 14 11 10 10 12 14 14 12 11 11 11 11 10 10 10 10 11 10 10 10 10 8 7
12 15 13 10 10 11 12 11 11 12 13 14 14 13 12 12 10 11 12 13 13 14 15 15 15 16 16 17 19 20 18 16 15 15 15 15 15 14 14 14 14 16 16 15 16 17 19 20 20 19 18 18 18 18 18 17 16 15 16 15 15 17 18 17 16 15 14 13 13 13 12 11 12 12 12 11 12 12 11 11 12 11 11 11 11 10
12 16 12 8 8 8 7 9 12 13 14 15 15 14 14 13 12 12 13 13 14 15 16 17 18 18 18 19 20 20 18 16 15 14 13 13 13 12 12 12 12 13 14 14 14 15 15 17 18 20 20 20 20 21 21 21 20 18 16 14 14 15 16 17 18 18 18 17 15 13 12 11 10 9 9 8 9 9 8 8 9 10 10 10 11 11
10 14 12 9 9 9 9 13 17 18 17 16 15 14 14 14 14 13 13 14 16 17 18 18 18 18 18 17 16 15 14 13 13 13 12 12 11 11 12 12 12 12 12 12 13 13 14 15 15 16 16 17 18 18 19 18 17 17 17 17 16 16 17 17 17 16 16 17 17 16 15 13 12 10 9 8 7 6 5 5 5 6 6 6 6 6
13 13 11 11 11 10 11 15 16 16 16 16 16 15 15 14 14 15 14 15 16 16 16 15 14 15 16 15 15 14 13 12 11 11 11 10 9 9 10 11 12 13 13 12 12 12 13 13 13 12 13 13 13 13 14 14 14 14 15 16 15 15 15 16 16 14 12 12 13 15 14 13 13 12 12 12 11 9 9 10 9 7 6 5 4 3
11 8 8 10 9 7 8 10 11 10 10 12 15 16 16 16 16 16 15 15 15 14 14 14 14 14 14 15 15 17 18 15 13 12 12 11 9 8 9 9 9 10 11 12 12 12 11 10 9 10 11 11 11 11 11 11 12 12 12 13 13 12 12 12 13 14 12 10 12 13 11 10 10 10 10 11 12 13 14 14 13 11 10 9 7 5
12 9 8 9 8 9 12 14 14 14 13 14 15 15 15 16 17 16 15 14 14 13 13 13 13 13 12 12 12 14 16 15 13 12 12 11 9 8 7 6 5 7 9 9 9 10 10 9 8 7 8 9 11 12 11 12 12 10 10 11 11 10 9 8 8 10 11 10 11 11 10 8 9 8 6 6 8 9 11 12 13 13 12 11 11 9
Wind_Direction
201 206 215 217 224 221 219 227 236 243 247 262 276 261 244 240 237 235 171 141 151 212 243 258 262 258 269 272 270 252 199 206 195 158 163 173 175 191 182 178 206 212 222 227 236 237 222 213 212 202 204 217 209 198 195 190 187 187 188 189 188 190 187 179 179 177 176 182 186 186 178 170 174 182 185 186 193 205 206 209 213 212 218 221 228 227
203 217 224 219 226 229 225 225 237 252 258 279 299 290 255 246 249 252 224 169 149 148 257 268 269 262 262 269 275 275 258 226 187 160 164 176 188 193 177 181 192 187 221 240 247 243 225 210 208 201 204 216 209 200 202 198 193 191 190 190 185 183 183 179 177 173 171 179 185 183 175 167 171 185 194 192 194 199 199 205 213 218 223 220 228 229
205 223 230 225 227 231 235 229 228 246 256 273 279 264 263 265 262 257 252 204 139 150 231 261 270 267 259 258 258 263 268 263 228 174 164 176 190 187 174 176 183 192 208 229 243 240 228 213 209 207 208 213 209 203 206 203 197 193 190 188 183 179 175 172 171 168 167 172 177 179 175 169 175 187 192 196 198 197 196 201 210 221 223 217 226 228
204 218 226 228 230 230 236 236 231 245 247 243 253 246 250 259 262 256 231 185 187 259 283 277 279 275 267 261 249 249 252 265 268 224 174 180 189 187 183 186 192 197 200 209 225 228 220 212 210 208 209 211 206 201 202 199 194 192 190 183 172 166 160 161 169 169 167 168 173 179 178 175 180 182 183 195 201 198 198 204 205 210 213 214 223 218
221 223 217 211 219 226 228 226 227 257 250 226 239 246 249 250 255 263 254 226 238 286 307 267 275 271 265 265 255 252 238 245 264 260 217 204 211 201 188 194 202 198 196 201 207 212 210 208 211 211 211 210 200 198 201 195 191 189 181 169 155 153 161 172 175 172 170 169 174 180 176 177 183 183 185 195 203 203 204 207 200 197 199 198 202 196
232 245 229 205 210 218 222 218 206 223 248 237 227 233 250 260 264 270 283 281 244 226 204 215 249 258 249 251 247 248 243 236 247 253 245 228 232 220 182 185 199 197 193 197 201 206 208 206 209 212 214 211 199 199 197 188 189 180 156 154 161 159 164 174 176 175 185 186 186 190 186 185 190 190 189 195 203 202 201 203 195 193 192 182 188 194
233 255 246 220 225 204 207 227 213 215 236 246 230 223 234 251 267 271 282 288 266 257 252 231 247 266 249 249 244 236 233 235 236 237 243 239 242 239 185 174 187 192 188 195 201 203 209 209 209 212 212 207 199 194 179 165 169 152 127 143 165 162 163 175 185 186 204 209 201 202 199 198 198 191 187 193 197 193 194 194 188 188 178 172 193 188
217 243 229 211 234 208 204 231 218 216 227 238 242 235 228 231 242 248 253 268 274 282 281 263 263 274 268 267 271 266 245 232 231 224 225 230 240 254 213 174 179 189 185 190 198 201 211 210 200 196 191 176 111 179 172 160 148 130 124 158 171 170 170 177 197 203 212 213 207 207 201 198 196 187 184 189 190 189 188 183 181 180 164 173 203 190
200 239 233 195 214 226 217 233 223 217 229 238 242 246 244 240 247 255 254 256 262 263 264 259 255 259 262 263 274 280 267 242 241 241 231 223 224 252 251 191 175 183 186 187 196 205 211 201 180 189 201 199 205 105 185 204 194 190 210 194 176 157 141 160 218 220 214 211 209 205 199 197 192 183 182 183 185 186 182 177 175 163 154 176 198 189
197 226 244 203 209 239 226 231 231 219 225 237 243 254 267 281 287 281 268 256 255 249 250 253 253 259 261 255 257 264 274 272 257 260 292 349 0 312 297 217 173 179 187 187 198 207 198 186 191 210 218 215 219 222 229 235 215 201 203 189 169 139 112 177 232 231 223 217 211 203 198 196 187 181 182 180 182 185 181 177 166 148 162 191 191 184
236 205 230 227 210 230 235 232 234 227 226 234 243 256 266 253 252 262 260 261 263 249 247 250 250 258 259 259 264 241 331 24 4 315 21 17 11 12 352 355 157 172 180 183 193 186 168 171 183 205 214 208 213 208 212 225 211 193 192 176 155 138 109 275 259 242 222 214 212 205 196 192 186 182 183 181 182 186 182 176 163 154 176 199 195 193
251 215 215 239 219 228 244 236 233 230 216 223 239 247 244 222 223 237 238 234 247 252 254 250 243 246 249 263 294 165 95 53 40 7 20 14 3 12 359 3 122 163 171 178 173 131 126 135 126 137 143 132 173 195 200 214 206 199 199 180 160 159 173 255 269 247 217 204 207 201 191 190 189 185 184 182 184 186 182 176 167 166 181 193 198 204
236 228 209 215 220 231 243 234 225 222 204 213 228 215 230 240 217 224 230 220 236 245 250 258 252 246 246 338 32 59 67 47 40 13 5 2 5 11 356 359 57 147 161 166 151 117 119 126 123 127 130 138 190 211 205 205 203 201 197 181 167 168 165 144 222 229 210 197 199 197 191 189 188 186 183 182 182 182 182 179 170 174 185 186 194 210
215 233 218 199 194 214 230 235 220 213 201 207 219 209 217 237 229 226 230 232 247 246 247 261 258 245 245 51 50 56 58 41 34 19 6 3 7 17 20 22 41 76 82 70 83 110 138 141 134 136 144 170 201 211 200 190 190 195 191 182 174 169 164 154 196 210 199 190 192 194 193 188 184 184 179 179 182 180 182 178 169 175 182 181 192 203
213 233 227 209 191 195 213 234 238 225 207 204 221 229 221 228 239 234 229 237 252 274 293 283 266 246 244 98 64 61 61 47 33 21 9 7 8 17 35 40 44 48 39 29 46 96 138 144 139 140 160 194 200 199 194 183 182 190 191 187 183 180 180 181 189 193 188 186 188 191 191 187 183 182 176 177 180 174 176 173 168 173 175 183 195 190
226 236 221 211 210 199 202 224 240 239 221 203 211 228 229 232 239 238 256 269 277 305 303 282 288 52 122 113 63 47 57 56 41 27 15 11 11 15 29 36 36 42 48 40 24 37 100 132 139 142 183 210 205 196 192 187 187 192 193 191 188 190 192 189 187 186 183 185 187 187 187 184 183 180 175 177 172 165 172 175 173 173 174 187 193 184
226 244 223 204 211 220 212 211 229 239 236 211 210 221 227 233 238 240 254 264 264 265 259 247 246 103 125 116 67 52 53 55 44 30 22 17 19 23 27 27 26 35 48 61 59 358 288 182 166 164 181 202 208 199 192 192 191 192 196 196 192 195 197 193 191 188 186 187 186 186 185 183 183 179 176 176 168 164 170 176 177 173 173 184 183 183
216 251 243 217 213 224 221 211 218 233 238 234 223 226 224 225 234 240 243 238 232 242 250 245 235 173 153 153 73 57 41 46 39 25 27 31 28 28 31 28 27 38 42 47 63 337 280 234 196 184 186 200 213 205 194 192 191 190 198 201 197 198 199 196 193 192 190 189 187 185 184 183 181 177 174 173 168 167 172 176 176 171 170 177 178 188
212 241 245 231 220 214 216 216 215 222 230 237 242 239 232 224 224 221 225 239 239 239 245 246 244 243 43 53 92 71 41 53 43 15 20 41 43 35 33 27 23 37 45 42 36 5 309 242 222 221 214 207 202 196 190 190 190 193 204 210 208 210 208 202 199 196 193 191 189 185 183 182 178 174 174 173 169 171 174 173 171 168 169 172 177 191
201 244 246 232 223 210 209 216 220 214 217 230 242 242 239 242 242 227 221 238 244 248 256 255 253 24 23 360 76 89 76 73 70 43 25 44 53 50 44 39 37 45 53 52 42 4 304 237 221 233 238 222 186 175 176 177 182 191 200 205 210 221 222 214 208 200 195 193 190 185 182 179 175 174 175 175 174 174 173 169 167 168 168 170 181 191
179 212 243 236 224 220 214 210 226 225 205 211 227 231 230 231 236 236 224 239 253 259 263 264 274 72 5 324 70 103 115 115 113 110 82 57 59 58 50 46 50 58 61 60 57 50 211 187 164 193 214 206 183 179 175 172 174 183 195 198 199 211 220 220 218 206 197 195 190 185 182 179 176 176 177 180 178 174 173 169 164 168 173 173 183 185
187 186 221 241 227 228 227 207 217 234 225 211 211 219 230 230 226 228 222 230 261 256 256 259 257 94 353 346 74 100 102 100 100 94 77 58 55 56 50 43 48 54 54 54 55 60 79 95 86 85 102 146 185 184 177 176 177 182 193 198 199 209 213 216 220 211 199 193 189 186 182 179 179 177 178 181 177 172 174 169 160 167 178 174 178 176
197 191 222 236 228 239 247 220 217 236 235 226 217 216 226 231 235 236 225 221 247 241 255 351 108 128 18 23 47 72 74 65 58 64 64 52 49 47 39 33 39 47 51 56 60 57 57 62 58 50 48 49 49 140 168 183 191 189 193 193 198 214 214 209 215 213 203 193 188 187 182 179 179 177 177 179 174 171 173 169 165 171 175 167 170 168
146 208 234 239 228 237 259 283 262 245 235 229 226 222 224 228 241 245 189 127 243 245 241 206 106 90 31 45 67 85 81 68 52 51 54 48 44 40 32 28 33 40 44 50 56 56 57 57 49 44 46 49 45 38 38 343 238 211 205 200 199 210 213 208 208 207 202 197 190 185 180 179 178 175 176 176 172 170 172 173 174 177 171 162 164 161
182 216 222 235 230 220 234 278 269 249 239 233 231 239 242 240 276 322 72 110 223 257 251 210 77 106 92 84 95 93 86 79 64 56 55 50 42 35 30 28 30 34 36 39 42 45 50 51 46 44 45 43 39 32 24 6 332 255 230 223 211 207 210 213 206 199 200 201 193 181 178 180 179 175 175 173 170 171 173 177 179 174 165 161 163 159
309 248 227 240 240 220 227 254 242 249 291 280 281 296 289 311 27 48 70 77 285 328 53 117 140 138 112 75 66 64 66 68 64 59 55 50 45 36 31 32 34 36 36 37 38 36 35 36 38 42 45 43 37 31 27 17 359 302 235 241 236 217 210 211 204 196 199 201 190 180 180 181 179 177 174 171 170 170 173 177 178 169 162 161 164 162
20 339 297 277 277 168 262 291 17 108 310 318 350 9 8 6 15 56 97 58 50 26 19 132 144 134 107 71 58 53 53 51 46 48 47 44 41 34 33 36 38 40 40 40 40 36 31 30 31 32 33 36 36 35 34 28 13 350 248 234 245 221 210 210 200 194 198 198 188 183 184 181 178 175 172 171 170 169 173 175 169 164 163 162 167 170
49 320 292 298 307 158 248 299 339 68 8 7 20 24 25 18 16 37 61 53 85 78 312 193 143 130 113 86 71 60 57 54 46 45 42 38 35 31 33 39 38 38 39 39 39 36 33 31 30 31 29 27 31 37 41 39 24 4 314 274 252 211 213 214 194 192 194 191 187 188 185 178 173 169 167 170 170 169 175 173 161 163 170 169 173 173
130 275 345 350 313 327 16 330 329 66 61 42 44 42 34 26 24 38 45 32 25 10 202 170 135 110 97 88 77 65 62 65 60 51 42 38 35 29 31 36 35 33 34 35 35 34 33 31 30 33 34 31 32 37 41 44 34 13 349 336 326 221 217 192 184 188 190 187 188 189 185 179 173 166 164 168 169 171 177 170 160 162 167 166 167 161
146 236 39 47 298 311 36 335 317 70 92 62 52 55 52 37 32 44 46 40 23 27 93 108 101 86 77 75 74 68 65 66 63 54 43 36 32 29 30 32 29 29 31 32 32 31 32 31 30 33 38 39 38 38 39 41 32 16 7 5 14 146 170 178 182 185 186 184 184 186 183 179 173 168 169 170 166 171 177 168 160 161 162 164 160 150
217 155 80 81 270 264 161 281 309 75 99 72 50 48 51 48 50 48 36 29 24 48 86 100 95 83 74 72 71 63 57 57 54 48 41 33 28 28 31 29 25 26 28 28 29 30 31 32 33 36 41 45 46 45 44 46 41 28 29 35 57 127 147 167 178 178 175 177 180 183 181 179 179 179 179 175 170 172 173 167 163 161 158 157 152 145
246 163 111 114 268 259 227 256 299 105 102 71 45 32 36 39 49 63 49 24 4 353 44 128 100 85 94 85 72 60 52 51 45 39 36 31 29 29 29 27 23 23 25 25 26 29 31 34 41 45 48 51 53 53 53 55 56 54 59 64 81 138 151 162 172 170 167 170 176 177 170 169 179 182 177 174 174 170 166 164 162 159 155 151 148 152
230 190 148 166 265 264 189 236 61 157 144 69 37 22 27 32 42 67 61 33 12 359 6 91 69 65 75 74 68 57 50 49 43 36 31 27 27 29 28 26 24 22 24 25 27 31 33 38 48 54 54 53 52 51 50 55 61 65 75 86 100 136 147 157 170 170 165 163 165 167 161 155 163 171 171 173 173 169 168 167 163 161 161 159 158 164
155 231 189 147 237 264 132 82 71 179 186 125 24 18 16 20 48 69 56 28 19 26 56 73 66 63 64 64 70 68 58 55 49 42 37 31 30 31 29 28 26 25 27 28 31 38 41 41 50 62 64 60 56 52 51 54 63 70 80 92 112 132 133 142 157 163 162 160 156 160 165 162 163 169 170 169 169 169 169 168 165 165 168 168 167 172
154 181 182 145 240 287 83 84 153 198 148 156 62 29 9 10 60 77 69 36 21 28 57 71 70 73 84 89 89 86 78 69 57 47 41 37 37 37 34 31 29 29 30 32 35 43 47 45 45 58 69 70 68 65 61 58 63 74 84 93 103 111 118 131 144 149 152 157 156 158 163 166 167 166 160 158 163 167 168 167 167 168 168 169 170 172
194 190 179 170 293 276 134 128 170 130 106 108 74 30 14 14 41 67 72 44 19 14 44 74 82 86 100 107 104 104 98 80 62 48 40 39 40 41 39 34 34 36 38 41 45 51 56 55 50 50 59 70 80 84 78 71 70 74 82 93 101 102 101 111 123 129 134 143 151 157 162 167 171 164 153 152 159 161 162 162 160 157 161 165 167 167
182 207 176 165 12 14 94 74 109 138 105 64 43 22 22 26 11 5 71 52 25 14 29 72 93 92 104 115 121 134 123 82 59 45 36 36 39 43 46 47 49 53 54 56 60 64 67 68 66 63 63 68 80 85 85 84 85 86 88 94 102 108 111 107 104 107 115 119 128 143 155 164 170 164 153 153 153 151 154 154 147 145 153 163 166 168
92 73 184 176 90 69 109 104 123 161 110 38 15 12 28 43 28 353 136 75 29 18 27 60 83 89 108 112 113 169 198 70 52 40 31 34 43 50 56 59 60 61 61 61 65 68 69 72 75 77 78 74 72 77 82 89 94 96 97 96 99 108 119 118 108 105 107 105 105 119 134 146 154 153 151 152 152 155 163 167 169 177 183 180 180 185
81 82 90 119 116 106 133 131 98 103 87 18 350 353 11 44 72 290 201 101 16 2 22 55 74 83 88 68 42 10 292 83 83 52 36 42 55 61 64 64 64 66 64 62 62 62 63 69 78 85 88 83 77 78 84 91 96 97 96 95 97 101 103 103 103 104 105 106 110 118 122 127 134 138 143 148 151 159 167 172 183 196 200 187 182 189
72 96 98 90 102 101 117 107 69 83 75 6 342 341 0 27 100 256 192 93 354 337 7 66 92 80 56 41 39 29 28 82 115 99 68 63 65 64 64 66 66 67 68 67 66 65 65 68 72 77 81 82 82 81 82 87 92 92 91 90 91 91 89 90 95 102 105 108 113 117 120 121 120 121 126 134 142 149 153 155 164 173 169 156 158 168
60 62 69 86 93 82 95 99 79 101 52 352 336 347 359 344 251 319 41 337 314 322 34 82 87 74 56 57 71 69 69 92 109 108 89 76 70 66 64 66 66 65 66 68 70 70 69 67 66 68 71 77 83 85 81 81 82 83 85 86 85 81 80 82 89 95 99 105 110 114 118 120 119 118 119 121 122 126 133 137 138 139 144 148 148 151
53 39 47 71 84 79 100 106 108 118 31 350 337 2 11 347 193 70 358 317 336 30 75 74 72 79 78 83 92 93 95 97 98 95 84 76 74 71 68 70 70 67 64 64 66 70 71 71 70 70 70 71 74 78 81 80 77 75 77 78 78 76 77 82 88 90 89 90 97 105 110 114 119 122 122 121 120 122 127 131 134 138 142 143 144 148
19 48 77 57 42 82 97 80 88 114 14 357 351 11 18 17 97 43 342 13 53 69 77 71 72 86 93 96 98 97 97 94 88 87 84 78 76 72 68 67 68 65 61 58 58 60 65 72 75 74 71 69 65 65 72 77 75 72 70 70 71 75 79 78 80 86 87 84 84 93 101 105 110 115 117 117 119 125 130 132 133 134 129 120 117 123
2 359 102 60 348 25 81 63 59 78 23 16 29 61 49 51 75 59 33 50 59 68 80 82 85 93 98 101 101 96 93 92 89 88 83 77 74 70 65 64 63 61 59 55 54 55 59 65 70 72 74 73 67 61 63 69 73 71 66 64 65 72 79 80 81 88 92 86 79 81 93 103 107 111 115 115 116 121 123 116 110 112 112 103 91 83
52 73 87 78 53 60 85 95 86 76 57 45 56 72 72 69 71 71 69 66 62 72 88 93 95 99 102 104 102 97 94 92 90 87 82 77 72 67 64 62 61 61 58 52 51 55 58 61 63 66 69 70 70 69 68 71 75 73 66 62 61 64 67 73 81 90 97 96 88 82 84 93 99 100 102 106 108 107 107 102 95 94 99 102 102 97
110 102 92 90 95 89 87 95 94 85 76 68 66 69 73 73 74 76 76 74 76 88 99 102 102 104 107 107 104 101 99 97 93 89 84 80 77 73 69 63 60 61 58 53 51 52 55 59 60 60 61 61 61 62 61 60 62 66 68 70 68 63 61 63 68 72 76 82 86 86 89 99 106 104 103 108 110 109 114 124 128 127 124 122 122 116
110 99 89 97 115 104 87 92 95 89 83 77 72 69 70 72 75 78 81 84 90 96 101 104 106 106 104 104 103 103 103 103 101 97 92 86 81 78 74 68 63 60 57 54 54 53 54 59 60 58 58 57 56 56 54 51 48 48 53 60 63 58 54 54 56 59 62 62 62 64 71 83 94 100 103 111 119 124 131 142 149 149 147 143 140 136
94 91 86 88 95 98 101 101 92 84 81 79 75 73 74 76 79 82 87 92 96 97 99 101 102 102 98 94 95 101 105 105 105 102 98 93 85 78 74 69 63 60 59 59 58 58 59 60 60 58 57 55 53 51 49 47 45 43 42 45 48 48 44 41 41 46 52 54 51 48 52 59 66 72 74 75 88 106 101 94 109 127 137 148 156 162
97 99 101 102 101 104 111 111 104 95 87 81 81 83 83 85 89 93 96 99 100 100 100 98 98 104 105 99 96 102 107 111 111 107 99 95 88 77 71 68 63 60 60 60 61 63 62 56 52 55 60 61 59 53 51 52 50 45 40 39 42 45 42 35 31 33 45 60 60 51 45 46 49 51 54 59 65 71 72 74 81 92 105 120 135 153
91 110 120 117 111 107 108 109 106 101 91 87 95 101 98 94 95 97 99 100 101 102 102 99 98 102 105 105 106 107 107 110 115 113 104 95 86 70 60 60 60 57 57 57 53 53 58 60 54 49 48 50 52 53 59 64 60 52 46 41 40 44 50 44 29 24 36 66 78 67 54 50 50 43 37 42 50 54 57 61 64 67 76 86 90 92
54 70 93 104 103 99 101 99 97 97 97 95 99 102 100 98 97 95 95 96 98 101 103 101 99 97 94 96 103 105 105 107 110 110 106 98 94 89 76 71 64 49 52 60 52 40 46 62 73 68 50 35 32 34 39 46 49 51 55 51 39 35 53 71 61 41 41 56 67 65 61 62 65 61 48 37 34 34 40 47 51 52 54 59 63 64